Location: Brantley
(31.5822°N, 86.2569°W)
Time: 01:51:20
(UTC+00:00)

Transit 2A Rocket - Pass Details

Date: 22 February 2026
Orbit: 583 x 900 km, 66.7° (Epoch: 12 March)

Event Time Altitude Azimuth Distance (km) Brightness Sun altitude
Rises 20:35:24 0° 220° (SW) 3,444 9.4 34.0°
Reaches altitude 10° 20:37:56 10° 226° (SW) 2,534 9.2 33.6°
Maximum altitude 20:43:39 48° 299° (WNW) 1,163 6.6 32.7°
Drops below altitude 10° 20:49:27 10° 13° (NNE) 2,567 7.4 31.7°
Sets 20:52:03 0° 19° (NNE) 3,493 8.0 31.3°
